This is the latest recevied weather packets stored in our database for station/object VANOK. If no packets are shown the sender has not sent any weather packets the latest 10 day(s).
| Time | Temp. | Humidity | Pressure | Rain* | Wind** | Luminosity | Snow |
|---|---|---|---|---|---|---|---|
| 1777517216 | 4.44° C | 89% | 1023.4 hPa | - | - | - | - |
| 1777516016 | 4.44° C | 91% | 1023.5 hPa | - | - | - | - |
| 1777514816 | 4.44° C | 93% | 1023.6 hPa | - | - | - | - |
| 1777513617 | 4.44° C | 97% | 1023.7 hPa | - | - | - | - |
| 1777512417 | 4.44° C | 98% | 1023.9 hPa | - | - | - | - |
| 1777511216 | 4.44° C | 98% | 1024 hPa | - | - | - | - |
| 1777510016 | 3.89° C | 97% | 1024.3 hPa | - | - | - | - |
| 1777508816 | 3.89° C | 95% | 1024.4 hPa | - | - | - | - |
| 1777507616 | 4.44° C | 83% | 1024.6 hPa | - | - | - | - |
| 1777506417 | 4.44° C | 78% | 1024.6 hPa | - | - | - | - |
| 1777505216 | 4.44° C | 79% | 1024.8 hPa | - | - | - | - |
| 1777504015 | 4.44° C | 79% | 1024.9 hPa | - | - | - | - |
| 1777502816 | 4.44° C | 79% | 1025 hPa | - | - | - | - |
| 1777501616 | 4.44° C | 77% | 1025 hPa | - | - | - | - |
| 1777500416 | 4.44° C | 75% | 1025.1 hPa | - | - | - | - |
| 1777499215 | 4.44° C | 77% | 1025.1 hPa | - | - | - | - |
| 1777498015 | 4.44° C | 74% | 1025 hPa | - | - | - | - |
| 1777496815 | 4.44° C | 73% | 1025 hPa | - | - | - | - |
| 1777495616 | 5° C | 72% | 1024.9 hPa | - | - | - | - |
| 1777494415 | 5° C | 78% | 1025 hPa | - | - | - | - |
| 1777493215 | 4.44° C | 80% | 1025.1 hPa | - | - | - | - |
| 1777492015 | 4.44° C | 81% | 1025.2 hPa | - | - | - | - |
| 1777490815 | 4.44° C | 79% | 1025.1 hPa | - | - | - | - |
| 1777489615 | 4.44° C | 76% | 1025.3 hPa | - | - | - | - |
| 1777488415 | 4.44° C | 73% | 1025.3 hPa | - | - | - | - |
* Rain since midnight (hover to see other rain measurements)
** Current wind speed in m/s (hover to see current wind gust speed)